Home   Weather   Altdorf   Past weeks

Flag for Switzerland Past Weather in Altdorf, Uri, Switzerland — Yesterday and Last 2 Weeks

Now
42 °F

Light rain. Overcast.


Feels Like: 37 °F
Forecast: 35 / 42 °F
Wind: 7 mph from Northwest

Location: Altdorf

Current Time: Apr 26, 2017 at 5:55:16 pm

Latest Report: Apr 26, 2017 at 5:00 pm


Visibility: 9 mi

Pressure: 29.87 "Hg

Humidity: 86%

Dew Point: 38 °F

Location of AltdorfLocation

Past Weather in Altdorf — Graph

°F

Altdorf Temperature Yesterday

Maximum temperature yesterday: 61 °F (at 11:00 am)
Minimum temperature yesterday: 47 °F (at 11:00 pm)
Average temperature yesterday: 54 °F

High & Low Weather Summary for the Past Weeks

 TemperatureHumidityPressure
High66 °F (Apr 12, 5:00 pm)97% (Apr 15, 10:00 pm)30.57 "Hg (Apr 15, 10:00 pm)
Low27 °F (Apr 21, 7:00 am)29% (Apr 21, 3:00 pm)29.71 "Hg (Apr 26, 12:00 am)
Average47 °F71%30.14 "Hg
* Reported Apr 11 4:00 pm — Apr 26 4:00 pm, Altdorf, Weather by CustomWeather, © 2017

Note: Actual official high and low records may vary slightly from our data, if they occured in-between our weather recording intervals... More about our weather records

Advertising

Altdorf Weather History for the Previous 24 Hours

Scroll right to see more
 ConditionsComfort  
Time TempWeatherWind HumidityBarometerVisibility
4:00 pm
Wed, Apr 26
42 °FQuite cool.7 mph85%29.87 "HgN/A
3:00 pm42 °FQuite cool.13 mph86%29.85 "HgN/A
2:00 pm42 °FOvercast.15 mph85%29.84 "Hg12 mi
1:00 pm46 °FCool.10 mph83%29.80 "HgN/A
12:00 pm45 °FQuite cool.8 mph84%29.81 "HgN/A
11:00 am44 °FRain. Overcast.7 mph87%29.80 "Hg2 mi
10:00 am43 °FQuite cool.8 mph86%29.78 "HgN/A
9:00 am43 °FQuite cool.10 mph88%29.76 "HgN/A
8:00 am44 °FLight rain. Low clouds.13 mph90%29.74 "Hg4 mi
7:00 am44 °FQuite cool.8 mph90%29.74 "HgN/A
6:00 am45 °FCool.3 mph90%29.72 "HgN/A
5:00 am46 °FLight rain. Overcast.1 mph93%29.72 "Hg4 mi
4:00 am46 °FCool.2 mph94%29.73 "HgN/A
3:00 am47 °FCool.No wind93%29.75 "HgN/A
2:00 am47 °FLight rain. Overcast.2 mph90%29.75 "Hg4 mi
1:00 am47 °FCool.3 mph85%29.74 "HgN/A
12:00 am47 °FCool.5 mph90%29.71 "HgN/A
11:00 pm
Tue, Apr 25
47 °FOvercast.1 mph92%29.72 "Hg9 mi
10:00 pm48 °FCool.1 mph91%29.76 "HgN/A
9:00 pm48 °FCool.6 mph89%29.76 "HgN/A
8:00 pm49 °FRain. Overcast.5 mph86%29.75 "Hg9 mi
7:00 pm49 °FCool.8 mph87%29.75 "HgN/A
6:00 pm51 °FCool.10 mph79%29.76 "HgN/A
5:00 pm52 °FOvercast.14 mph73%29.76 "Hg12 mi
Weather by CustomWeather, © 2017

See weather overviewHow to use our weather pages